This demonstration page uses our WeatherBlox Daily Observations layout. Learn more.

Left ArrowRight Arrow

Hourly Observations for January 17, 2016

Temp ( °F °C ) Dew Point ( °F °C ) Humidity (%) Winds ( mph kmh ) Pressure ( in mb ) Visibility ( mi km ) Precip ( " mm )
12:59 am 00:59 Mostly Clear 45 7.2 33 0.6 63 63 NNE 17 28 29.85 1011 10 16 0.00 0.00
1:59 am 01:59 Partly Cloudy 45 7.2 32 0 61 61 NNE 15 24 29.85 1011 10 16 0.00 0.00
2:59 am 02:59 Cloudy 44 6.7 33 0.6 65 65 NNE 14 22 29.85 1011 10 16 0.00 0.00
3:59 am 03:59 Cloudy 44 6.7 32 0 63 63 NNE 10 17 29.84 1011 10 16 0.00 0.00
4:59 am 04:59 Cloudy 44 6.7 32 0 63 63 NE 12 19 29.85 1011 10 16 0.00 0.00
5:59 am 05:59 Cloudy 44 6.7 31 -0.6 60 60 NE 18 30 29.81 1010 10 16 0.00 0.00
6:59 am 06:59 Cloudy 43 6.1 31 -0.6 63 63 NE 10 17 29.83 1010 10 16 0.00 0.00
7:59 am 07:59 Cloudy 42 5.6 31 -0.6 65 65 NNE 16 26 29.81 1009 10 16 0.00 0.00
8:59 am 08:59 Cloudy with Light Rain 41 5 33 0.6 73 73 NNE 13 20 29.85 1011 7 11 0.00 0.03
9:59 am 09:59 Cloudy with Light Rain 39 3.9 34 1.1 82 82 NNE 17 28 29.84 1011 5 8 0.12 3.05
10:59 am 10:59 Cloudy with Light Snow 35 1.7 32 0 89 89 N 17 28 29.84 1010 5 8 0.15 3.81
11:40 am 11:40 Cloudy with Light Snow 34 1.1 32 0 92 92 N 12 19 29.83 1010 1 2 0.08 2.03
11:59 am 11:59 Cloudy with Light Snow 34 1.1 32 0 92 92 N 15 24 29.80 1009 1 2 0.12 3.05
12:59 pm 12:59 Cloudy with Light Snow 34 1.1 32 0 92 92 N 14 22 29.76 1008 1 2 0.17 4.32
1:59 pm 13:59 Cloudy with Light Snow 35 1.7 32 0 89 89 N 13 20 29.73 1007 2 3 0.06 1.52
2:19 pm 14:19 Cloudy with Light Snow 35 1.7 32 0 89 89 N 16 26 29.71 1006 2 3 0.00 0.03
2:27 pm 14:27 Cloudy with Light Rain/Snow 36 2.2 33 0.6 89 89 N 14 22 29.71 1006 4 6 0.00 0.03
2:59 pm 14:59 Cloudy 36 2.2 32 0 86 86 N 15 24 29.73 1007 7 11 0.01 0.25
3:51 pm 15:51 Cloudy 36 2.2 32 0 86 86 N 16 26 29.74 1007 8 13 0.00 0.00
3:59 pm 15:59 Cloudy 36 2.2 31 -0.6 82 82 N 18 30 29.74 1007 8 13 0.00 0.00
4:25 pm 16:25 Cloudy 37 2.8 32 0 82 82 NNW 14 22 29.74 1007 8 13 0.00 0.00
4:32 pm 16:32 Cloudy 36 2.2 32 0 86 86 NNW 17 28 29.74 1007 10 16 0.00 0.00
4:59 pm 16:59 Cloudy 36 2.2 32 0 86 86 NNW 21 33 29.75 1007 10 16 0.00 0.00
5:54 pm 17:54 Cloudy 36 2 30 -1 81 81 NW 16 26 29.77 1008 10 16 0.00 0.00
5:59 pm 17:59 Cloudy 36 2.2 31 -0.6 82 82 NW 14 22 29.78 1009 10 16 0.00 0.00
6:59 pm 18:59 Cloudy 36 2.2 29 -1.7 76 76 NNW 24 39 29.82 1010 10 16 0.00 0.00
7:59 pm 19:59 Mostly Cloudy 35 1.7 29 -1.7 78 78 NW 8 13 29.84 1011 10 16 0.00 0.00
8:14 pm 20:14 Partly Cloudy 35 1.7 29 -1.7 78 78 NW 9 15 29.85 1011 10 16 0.00 0.00
8:59 pm 20:59 Partly Cloudy 35 1.7 28 -2.2 76 76 WNW 8 13 29.86 1011 10 16 0.00 0.00
9:59 pm 21:59 Mostly Clear 35 1.7 30 -1.1 82 82 W 12 19 29.88 1012 10 16 0.00 0.00
10:59 pm 22:59 Partly Cloudy 34 1.1 30 -1.1 85 85 WSW 8 13 29.88 1012 10 16 0.00 0.00
11:59 pm 23:59 Cloudy 35 1.7 31 -0.6 85 85 WSW 6 9 29.88 1012 10 16 0.00 0.00

Powered by AerisWeather